| time (UTC) | temp F | wind direction | speed MPH | gust MPH | rain 1hr in | rain 24hr in | rain mn in | humidity % | barometer mb |
| 20260505201002 | 80 | 198 | 2.0 | 8.0 | 0.00 | 0.00 | 0.00 | 54 | 1015.4 |
| 20260505200503 | 80 | 295 | 1.0 | 5.0 | 0.00 | 0.00 | 0.00 | 52 | 1015.4 |
| 20260505200010 | 80 | 47 | 2.0 | 5.0 | 0.00 | 0.00 | 0.00 | 52 | 1015.6 |
| 20260505195502 | 80 | 17 | 1.0 | 7.0 | 0.00 | 0.00 | 0.00 | 51 | 1015.6 |
| 20260505195002 | 80 | 174 | 3.0 | 8.0 | 0.00 | 0.00 | 0.00 | 51 | 1015.5 |
| 20260505194502 | 80 | 44 | 2.0 | 8.0 | 0.00 | 0.00 | 0.00 | 52 | 1015.6 |
| 20260505194005 | 80 | 178 | 2.0 | 5.0 | 0.00 | 0.00 | 0.00 | 50 | 1015.6 |
| 20260505193503 | 80 | 275 | 1.0 | 7.0 | 0.00 | 0.00 | 0.00 | 50 | 1015.8 |
| 20260505193003 | 80 | 15 | 1.0 | 7.0 | 0.00 | 0.00 | 0.00 | 51 | 1015.9 |
| 20260505192502 | 79 | 327 | 2.0 | 7.0 | 0.00 | 0.00 | 0.00 | 51 | 1015.9 |
| 20260505192002 | 80 | 22 | 3.0 | 7.0 | 0.00 | 0.00 | 0.00 | 50 | 1015.9 |
| 20260505191508 | 80 | 355 | 1.0 | 6.0 | 0.00 | 0.00 | 0.00 | 50 | 1015.9 |
| 20260505191004 | 80 | 202 | 1.0 | 7.0 | 0.00 | 0.00 | 0.00 | 50 | 1016.0 |
| 20260505190505 | 80 | 53 | 2.0 | 7.0 | 0.00 | 0.00 | 0.00 | 51 | 1016.0 |
| 20260505190010 | 80 | 47 | 0.0 | 7.0 | 0.00 | 0.00 | 0.00 | 53 | 1016.2 |
| 20260505185502 | 80 | 167 | 1.0 | 5.0 | 0.00 | 0.00 | 0.00 | 53 | 1016.2 |
| 20260505185003 | 80 | 71 | 0.0 | 6.0 | 0.00 | 0.00 | 0.00 | 50 | 1016.1 |
| 20260505184504 | 80 | 9 | 2.0 | 6.0 | 0.00 | 0.00 | 0.00 | 50 | 1016.4 |
| 20260505184002 | 81 | 9 | 1.0 | 6.0 | 0.00 | 0.00 | 0.00 | 52 | 1016.4 |
| 20260505183504 | 81 | 13 | 2.0 | 6.0 | 0.00 | 0.00 | 0.00 | 50 | 1016.4 |
| 20260505183008 | 81 | 175 | 1.0 | 6.0 | 0.00 | 0.00 | 0.00 | 49 | 1016.3 |
| 20260505182503 | 81 | 224 | 1.0 | 6.0 | 0.00 | 0.00 | 0.00 | 50 | 1016.2 |
| 20260505182003 | 81 | 281 | 1.0 | 6.0 | 0.00 | 0.00 | 0.00 | 48 | 1016.3 |
| 20260505181502 | 81 | 186 | 1.0 | 8.0 | 0.00 | 0.00 | 0.00 | 51 | 1016.3 |
| 20260505181003 | 81 | 163 | 2.0 | 8.0 | 0.00 | 0.00 | 0.00 | 50 | 1016.4 |
| 20260505180503 | 81 | 30 | 2.0 | 7.0 | 0.00 | 0.00 | 0.00 | 49 | 1016.5 |
| 20260505180008 | 81 | 153 | 2.0 | 7.0 | 0.00 | 0.00 | 0.00 | 52 | 1016.6 |
| 20260505175502 | 81 | 20 | 2.0 | 6.0 | 0.00 | 0.00 | 0.00 | 49 | 1016.7 |
| 20260505175003 | 81 | 62 | 2.0 | 8.0 | 0.00 | 0.00 | 0.00 | 49 | 1016.6 |
| 20260505174506 | 81 | 117 | 1.0 | 8.0 | 0.00 | 0.00 | 0.00 | 51 | 1016.5 |
| 20260505174003 | 81 | 157 | 1.0 | 5.0 | 0.00 | 0.00 | 0.00 | 52 | 1016.6 |
| 20260505173503 | 81 | 296 | 0.0 | 4.0 | 0.00 | 0.00 | 0.00 | 54 | 1016.6 |
| 20260505173002 | 82 | 192 | 1.0 | 8.0 | 0.00 | 0.00 | 0.00 | 53 | 1016.7 |
| 20260505172502 | 81 | 163 | 2.0 | 8.0 | 0.00 | 0.00 | 0.00 | 55 | 1016.7 |
| 20260505172005 | 81 | 199 | 1.0 | 8.0 | 0.00 | 0.00 | 0.00 | 51 | 1016.7 |
| 20260505171505 | 81 | 155 | 3.0 | 6.0 | 0.00 | 0.00 | 0.00 | 53 | 1016.8 |
| 20260505171003 | 80 | 161 | 1.0 | 6.0 | 0.00 | 0.00 | 0.00 | 52 | 1016.8 |
| 20260505170502 | 81 | 84 | 2.0 | 6.0 | 0.00 | 0.00 | 0.00 | 52 | 1016.8 |
| 20260505170005 | 80 | 140 | 1.0 | 6.0 | 0.00 | 0.00 | 0.00 | 52 | 1016.8 |
| 20260505165502 | 80 | 188 | 1.0 | 6.0 | 0.00 | 0.00 | 0.00 | 54 | 1016.9 |
| 20260505165002 | 80 | 220 | 1.0 | 11.0 | 0.00 | 0.00 | 0.00 | 54 | 1016.9 |
| 20260505164502 | 80 | 207 | 1.0 | 3.0 | 0.00 | 0.00 | 0.00 | 52 | 1016.9 |
| 20260505164003 | 80 | 321 | 1.0 | 5.0 | 0.00 | 0.00 | 0.00 | 54 | 1016.9 |
| 20260505163502 | 80 | 30 | 2.0 | 7.0 | 0.00 | 0.00 | 0.00 | 53 | 1017.0 |
| 20260505163003 | 80 | 21 | 1.0 | 9.0 | 0.00 | 0.00 | 0.00 | 55 | 1017.1 |
| 20260505162502 | 80 | 149 | 2.0 | 9.0 | 0.00 | 0.00 | 0.00 | 54 | 1017.0 |
| 20260505162002 | 80 | 223 | 1.0 | 6.0 | 0.00 | 0.00 | 0.00 | 57 | 1016.9 |
| 20260505161503 | 80 | 201 | 2.0 | 6.0 | 0.00 | 0.00 | 0.00 | 53 | 1016.8 |
| 20260505161002 | 80 | 153 | 1.0 | 5.0 | 0.00 | 0.00 | 0.00 | 56 | 1016.8 |
| 20260505160502 | 80 | 197 | 1.0 | 8.0 | 0.00 | 0.00 | 0.00 | 56 | 1016.7 |
| 20260505153002 | 79 | 187 | 0.0 | 8.0 | 0.00 | 0.00 | 0.00 | 59 | 1016.9 |
| 20260505152502 | 78 | 177 | 2.0 | 8.0 | 0.00 | 0.00 | 0.00 | 58 | 1016.8 |
| 20260505152001 | 78 | 53 | 1.0 | 6.0 | 0.00 | 0.00 | 0.00 | 57 | 1016.9 |
| 20260505151501 | 78 | 174 | 3.0 | 6.0 | 0.00 | 0.00 | 0.00 | 58 | 1016.9 |
| 20260505151001 | 78 | 197 | 1.0 | 4.0 | 0.00 | 0.00 | 0.00 | 58 | 1016.9 |
| 20260505150501 | 78 | 60 | 1.0 | 4.0 | 0.00 | 0.00 | 0.00 | 57 | 1016.9 |
| 20260505140501 | 74 | 224 | 0.0 | 4.0 | 0.00 | 0.00 | 0.00 | 70 | 1016.6 |
| 20260505125001 | 63 | 269 | 0.0 | 1.0 | 0.00 | 0.00 | 0.00 | 99 | 1016.4 |
| 20260505124502 | 62 | 269 | 0.0 | 0.0 | 0.00 | 0.00 | 0.00 | 99 | 1016.4 |
| 20260505124001 | 61 | 269 | 0.0 | 0.0 | 0.00 | 0.00 | 0.00 | 99 | 1016.3 |
| 20260505123501 | 60 | 269 | 0.0 | 0.0 | 0.00 | 0.00 | 0.00 | 99 | 1016.3 |
| 20260505123001 | 59 | 269 | 0.0 | 0.0 | 0.00 | 0.00 | 0.00 | 99 | 1016.2 |
| 20260505122501 | 59 | 269 | 0.0 | 0.0 | 0.00 | 0.00 | 0.00 | 98 | 1016.3 |
| 20260505122001 | 58 | 269 | 0.0 | 0.0 | 0.00 | 0.00 | 0.00 | 98 | 1016.3 |
| 20260505121503 | 57 | 269 | 0.0 | 0.0 | 0.00 | 0.00 | 0.00 | 98 | 1016.1 |
| 20260505121001 | 57 | 269 | 0.0 | 0.0 | 0.00 | 0.00 | 0.00 | 98 | 1016.0 |
| 20260505120505 | 56 | 269 | 0.0 | 0.0 | 0.00 | 0.00 | 0.00 | 98 | 1016.1 |
| 20260505120004 | 55 | 269 | 0.0 | 0.0 | 0.00 | 0.00 | 0.00 | 98 | 1016.0 |
| 20260505115501 | 55 | 269 | 0.0 | 0.0 | 0.00 | 0.00 | 0.00 | 98 | 1016.1 |
| 20260505115001 | 55 | 269 | 0.0 | 0.0 | 0.00 | 0.00 | 0.00 | 98 | 1016.0 |
| 20260505114501 | 54 | 269 | 0.0 | 0.0 | 0.00 | 0.00 | 0.00 | 98 | 1016.0 |
| 20260505114004 | 54 | 269 | 0.0 | 0.0 | 0.00 | 0.00 | 0.00 | 98 | 1016.0 |
| 20260505113501 | 54 | 269 | 0.0 | 0.0 | 0.00 | 0.00 | 0.00 | 97 | 1016.0 |
| 20260505113005 | 53 | 269 | 0.0 | 0.0 | 0.00 | 0.00 | 0.00 | 97 | 1015.9 |
| 20260505112501 | 53 | 269 | 0.0 | 0.0 | 0.00 | 0.00 | 0.00 | 97 | 1015.8 |
| 20260505112003 | 53 | 269 | 0.0 | 0.0 | 0.00 | 0.00 | 0.00 | 97 | 1015.6 |
| 20260505111501 | 53 | 269 | 0.0 | 0.0 | 0.00 | 0.00 | 0.00 | 97 | 1015.6 |
| 20260505111001 | 53 | 269 | 0.0 | 0.0 | 0.00 | 0.00 | 0.00 | 97 | 1015.5 |
| 20260505110503 | 53 | 269 | 0.0 | 0.0 | 0.00 | 0.00 | 0.00 | 97 | 1015.5 |
| 20260505102001 | 52 | 269 | 0.0 | 0.0 | 0.00 | 0.00 | 0.00 | 96 | 1015.2 |
| 20260505101501 | 52 | 269 | 0.0 | 0.0 | 0.00 | 0.00 | 0.00 | 96 | 1015.2 |
| 20260505101001 | 53 | 269 | 0.0 | 0.0 | 0.00 | 0.00 | 0.00 | 96 | 1015.3 |
| 20260505100501 | 53 | 269 | 0.0 | 0.0 | 0.00 | 0.00 | 0.00 | 96 | 1015.4 |
| 20260505100004 | 53 | 269 | 0.0 | 0.0 | 0.00 | 0.00 | 0.00 | 96 | 1015.2 |
| 20260505095501 | 53 | 269 | 0.0 | 0.0 | 0.00 | 0.00 | 0.00 | 96 | 1015.2 |
| 20260505095001 | 53 | 269 | 0.0 | 0.0 | 0.00 | 0.00 | 0.00 | 96 | 1015.1 |
| 20260505094501 | 53 | 269 | 0.0 | 0.0 | 0.00 | 0.00 | 0.00 | 96 | 1015.0 |
| 20260505094002 | 53 | 269 | 0.0 | 0.0 | 0.00 | 0.00 | 0.00 | 96 | 1015.0 |
| 20260505093501 | 53 | 269 | 0.0 | 0.0 | 0.00 | 0.00 | 0.00 | 96 | 1015.1 |
| 20260505093001 | 53 | 269 | 0.0 | 0.0 | 0.00 | 0.00 | 0.00 | 96 | 1015.0 |
| 20260505092500 | 53 | 269 | 0.0 | 0.0 | 0.00 | 0.00 | 0.00 | 96 | 1014.9 |
| 20260505092001 | 54 | 269 | 0.0 | 0.0 | 0.00 | 0.00 | 0.00 | 96 | 1014.9 |
| 20260505091501 | 54 | 269 | 0.0 | 0.0 | 0.00 | 0.00 | 0.00 | 96 | 1014.8 |
| 20260505091004 | 54 | 269 | 0.0 | 0.0 | 0.00 | 0.00 | 0.00 | 96 | 1014.9 |
| 20260505090501 | 54 | 269 | 0.0 | 0.0 | 0.00 | 0.00 | 0.00 | 96 | 1014.9 |
| 20260505090108 | 54 | 269 | 0.0 | 0.0 | 0.00 | 0.00 | 0.00 | 96 | 1015.0 |
| 20260505041504 | 58 | 269 | 0.0 | 0.0 | 0.00 | 0.00 | 0.00 | 93 | 1016.2 |
| 20260505041004 | 58 | 269 | 0.0 | 0.0 | 0.00 | 0.00 | 0.00 | 93 | 1016.2 |
| 20260505040504 | 58 | 269 | 0.0 | 0.0 | 0.00 | 0.00 | 0.00 | 93 | 1016.3 |
| 20260505040008 | 58 | 269 | 0.0 | 0.0 | 0.00 | 0.00 | 0.00 | 93 | 1016.2 |
| 20260505035508 | 58 | 269 | 0.0 | 0.0 | 0.00 | 0.00 | 0.00 | 93 | 1016.3 |
| 20260505035004 | 58 | 269 | 0.0 | 0.0 | 0.00 | 0.00 | 0.00 | 93 | 1016.3 |
| 20260505034504 | 58 | 269 | 0.0 | 0.0 | 0.00 | 0.00 | 0.00 | 93 | 1016.3 |
| 20260505034005 | 58 | 269 | 0.0 | 0.0 | 0.00 | 0.00 | 0.00 | 92 | 1016.2 |
| 20260505033504 | 58 | 269 | 0.0 | 0.0 | 0.00 | 0.00 | 0.00 | 92 | 1016.4 |
| 20260505033010 | 59 | 269 | 0.0 | 0.0 | 0.00 | 0.00 | 0.00 | 92 | 1016.5 |
| 20260505032507 | 59 | 269 | 0.0 | 0.0 | 0.00 | 0.00 | 0.00 | 92 | 1016.4 |
| 20260505032005 | 59 | 269 | 0.0 | 0.0 | 0.00 | 0.00 | 0.00 | 92 | 1016.5 |
| 20260505031504 | 59 | 269 | 0.0 | 0.0 | 0.00 | 0.00 | 0.00 | 92 | 1016.5 |
| 20260505031007 | 59 | 269 | 0.0 | 0.0 | 0.00 | 0.00 | 0.00 | 91 | 1016.5 |
| 20260505030504 | 59 | 269 | 0.0 | 0.0 | 0.00 | 0.00 | 0.00 | 91 | 1016.6 |
| 20260505030006 | 59 | 269 | 0.0 | 0.0 | 0.00 | 0.00 | 0.00 | 91 | 1016.6 |
| 20260505025504 | 59 | 269 | 0.0 | 0.0 | 0.00 | 0.00 | 0.00 | 91 | 1016.6 |
| 20260505025005 | 59 | 269 | 0.0 | 0.0 | 0.00 | 0.00 | 0.00 | 91 | 1016.6 |
| 20260505024504 | 59 | 269 | 0.0 | 0.0 | 0.00 | 0.00 | 0.00 | 90 | 1016.5 |
| 20260505024006 | 60 | 269 | 0.0 | 0.0 | 0.00 | 0.00 | 0.00 | 90 | 1016.5 |
| 20260505023503 | 60 | 269 | 0.0 | 0.0 | 0.00 | 0.00 | 0.00 | 90 | 1016.6 |
| 20260505023004 | 60 | 269 | 0.0 | 0.0 | 0.00 | 0.00 | 0.00 | 90 | 1016.7 |
| 20260505022504 | 60 | 269 | 0.0 | 0.0 | 0.00 | 0.00 | 0.00 | 90 | 1016.7 |
| 20260505022004 | 60 | 269 | 0.0 | 0.0 | 0.00 | 0.00 | 0.00 | 89 | 1016.6 |
| 20260505021503 | 60 | 269 | 0.0 | 0.0 | 0.00 | 0.00 | 0.00 | 89 | 1016.5 |
| 20260505021003 | 61 | 269 | 0.0 | 0.0 | 0.00 | 0.00 | 0.00 | 89 | 1016.5 |
| 20260505020503 | 61 | 269 | 0.0 | 0.0 | 0.00 | 0.00 | 0.00 | 88 | 1016.7 |
| 20260505020006 | 61 | 269 | 0.0 | 0.0 | 0.00 | 0.00 | 0.00 | 88 | 1016.7 |
| 20260505015504 | 61 | 269 | 0.0 | 0.0 | 0.00 | 0.00 | 0.00 | 88 | 1016.7 |
| 20260505015004 | 61 | 269 | 0.0 | 0.0 | 0.00 | 0.00 | 0.00 | 87 | 1016.6 |
| 20260505014508 | 62 | 269 | 0.0 | 0.0 | 0.00 | 0.00 | 0.00 | 87 | 1016.5 |
| 20260505014003 | 62 | 269 | 0.0 | 0.0 | 0.00 | 0.00 | 0.00 | 86 | 1016.4 |
| 20260505013503 | 62 | 269 | 0.0 | 0.0 | 0.00 | 0.00 | 0.00 | 86 | 1016.5 |
| 20260505013003 | 62 | 269 | 0.0 | 0.0 | 0.00 | 0.00 | 0.00 | 85 | 1016.4 |
| 20260505012504 | 63 | 269 | 0.0 | 0.0 | 0.00 | 0.00 | 0.00 | 84 | 1016.4 |
| 20260505012004 | 63 | 269 | 0.0 | 0.0 | 0.00 | 0.00 | 0.00 | 84 | 1016.2 |
| 20260505011505 | 63 | 269 | 0.0 | 0.0 | 0.00 | 0.00 | 0.00 | 83 | 1016.2 |
| 20260505011003 | 63 | 269 | 0.0 | 0.0 | 0.00 | 0.00 | 0.00 | 82 | 1016.2 |
| 20260505010503 | 64 | 269 | 0.0 | 0.0 | 0.00 | 0.00 | 0.00 | 82 | 1016.2 |
| 20260505010005 | 64 | 269 | 0.0 | 0.0 | 0.00 | 0.00 | 0.00 | 81 | 1016.2 |
| 20260505005504 | 64 | 269 | 0.0 | 0.0 | 0.00 | 0.00 | 0.00 | 80 | 1016.1 |
| 20260505005004 | 65 | 269 | 0.0 | 0.0 | 0.00 | 0.00 | 0.00 | 79 | 1016.2 |
| 20260505004511 | 65 | 269 | 0.0 | 0.0 | 0.00 | 0.00 | 0.00 | 79 | 1016.1 |
| 20260505004003 | 66 | 269 | 0.0 | 0.0 | 0.00 | 0.00 | 0.00 | 78 | 1016.1 |
| 20260505003505 | 66 | 269 | 0.0 | 0.0 | 0.00 | 0.00 | 0.00 | 75 | 1016.0 |
| 20260505003002 | 67 | 269 | 0.0 | 0.0 | 0.00 | 0.00 | 0.00 | 74 | 1016.1 |
| 20260505002503 | 67 | 269 | 0.0 | 0.0 | 0.00 | 0.00 | 0.00 | 72 | 1016.0 |
| 20260505002003 | 68 | 269 | 0.0 | 0.0 | 0.00 | 0.00 | 0.00 | 71 | 1016.0 |
| 20260505001503 | 69 | 269 | 0.0 | 0.0 | 0.00 | 0.00 | 0.00 | 70 | 1015.9 |
| 20260505001002 | 69 | 269 | 0.0 | 0.0 | 0.00 | 0.00 | 0.00 | 69 | 1015.7 |
| 20260505000502 | 70 | 269 | 0.0 | 5.0 | 0.00 | 0.00 | 0.00 | 68 | 1015.5 |
| 20260505000006 | 70 | 269 | 0.0 | 5.0 | 0.00 | 0.00 | 0.00 | 66 | 1015.5 |
| 20260504235503 | 70 | 179 | 0.0 | 3.0 | 0.00 | 0.00 | 0.00 | 66 | 1015.5 |
| 20260504235003 | 70 | 81 | 0.0 | 3.0 | 0.00 | 0.00 | 0.00 | 66 | 1015.4 |
| 20260504234502 | 71 | 191 | 0.0 | 5.0 | 0.00 | 0.00 | 0.00 | 65 | 1015.2 |
| 20260504234002 | 71 | 193 | 0.0 | 5.0 | 0.00 | 0.00 | 0.00 | 64 | 1015.2 |
| 20260504233502 | 71 | 223 | 0.0 | 5.0 | 0.00 | 0.00 | 0.00 | 64 | 1015.2 |
| 20260504233003 | 71 | 256 | 1.0 | 5.0 | 0.00 | 0.00 | 0.00 | 64 | 1015.1 |
| 20260504232503 | 71 | 351 | 1.0 | 4.0 | 0.00 | 0.00 | 0.00 | 63 | 1015.2 |
| 20260504232002 | 72 | 215 | 0.0 | 2.0 | 0.00 | 0.00 | 0.00 | 63 | 1015.1 |
| 20260504231511 | 72 | 24 | 0.0 | 5.0 | 0.00 | 0.00 | 0.00 | 62 | 1015.2 |
| 20260504231002 | 72 | 186 | 1.0 | 5.0 | 0.00 | 0.00 | 0.00 | 61 | 1015.2 |
| 20260504230502 | 72 | 166 | 1.0 | 6.0 | 0.00 | 0.00 | 0.00 | 62 | 1015.1 |
| 20260504230005 | 72 | 200 | 1.0 | 6.0 | 0.00 | 0.00 | 0.00 | 62 | 1015.2 |
| 20260504225507 | 73 | 190 | 0.0 | 5.0 | 0.00 | 0.00 | 0.00 | 62 | 1015.2 |
| 20260504225003 | 73 | 194 | 2.0 | 5.0 | 0.00 | 0.00 | 0.00 | 61 | 1015.3 |
| 20260504224502 | 73 | 11 | 0.0 | 3.0 | 0.00 | 0.00 | 0.00 | 62 | 1015.4 |
| 20260504224002 | 73 | 169 | 0.0 | 6.0 | 0.00 | 0.00 | 0.00 | 61 | 1015.4 |
| 20260504223502 | 73 | 242 | 1.0 | 10.0 | 0.00 | 0.00 | 0.00 | 62 | 1015.5 |
| 20260504223003 | 73 | 209 | 1.0 | 4.0 | 0.00 | 0.00 | 0.00 | 61 | 1015.6 |
| 20260504222505 | 73 | 201 | 1.0 | 7.0 | 0.00 | 0.00 | 0.00 | 59 | 1015.7 |
| 20260504222002 | 74 | 360 | 2.0 | 7.0 | 0.00 | 0.00 | 0.00 | 60 | 1015.5 |
| 20260504221502 | 74 | 141 | 2.0 | 7.0 | 0.00 | 0.00 | 0.00 | 61 | 1015.5 |
| 20260504221003 | 74 | 123 | 1.0 | 7.0 | 0.00 | 0.00 | 0.00 | 60 | 1015.5 |
| 20260504220503 | 74 | 143 | 1.0 | 6.0 | 0.00 | 0.00 | 0.00 | 61 | 1015.4 |
| 20260504220005 | 74 | 173 | 0.0 | 6.0 | 0.00 | 0.00 | 0.00 | 61 | 1015.2 |
| 20260504215503 | 74 | 207 | 2.0 | 9.0 | 0.00 | 0.00 | 0.00 | 60 | 1015.5 |
| 20260504215005 | 74 | 188 | 3.0 | 9.0 | 0.00 | 0.00 | 0.00 | 59 | 1015.3 |
| 20260504214504 | 75 | 177 | 2.0 | 7.0 | 0.00 | 0.00 | 0.00 | 61 | 1015.4 |
| 20260504214004 | 75 | 183 | 1.0 | 9.0 | 0.00 | 0.00 | 0.00 | 60 | 1015.5 |
| 20260504213502 | 75 | 200 | 3.0 | 9.0 | 0.00 | 0.00 | 0.00 | 61 | 1015.4 |
| 20260504213006 | 75 | 192 | 1.0 | 7.0 | 0.00 | 0.00 | 0.00 | 60 | 1015.4 |
| 20260504212503 | 75 | 17 | 1.0 | 8.0 | 0.00 | 0.00 | 0.00 | 60 | 1015.4 |
| 20260504212004 | 75 | 83 | 2.0 | 8.0 | 0.00 | 0.00 | 0.00 | 60 | 1015.5 |
| 20260504211502 | 75 | 96 | 0.0 | 6.0 | 0.00 | 0.00 | 0.00 | 60 | 1015.6 |
| 20260504211002 | 75 | 58 | 2.0 | 6.0 | 0.00 | 0.00 | 0.00 | 61 | 1015.6 |
| 20260504210503 | 75 | 196 | 2.0 | 8.0 | 0.00 | 0.00 | 0.00 | 60 | 1015.6 |
| 20260504210007 | 75 | 188 | 2.0 | 8.0 | 0.00 | 0.00 | 0.00 | 60 | 1015.6 |
| 20260504205503 | 76 | 42 | 2.0 | 7.0 | 0.00 | 0.00 | 0.00 | 60 | 1015.6 |
| 20260504205002 | 76 | 95 | 2.0 | 5.0 | 0.00 | 0.00 | 0.00 | 58 | 1015.6 |
| 20260504204502 | 76 | 156 | 2.0 | 8.0 | 0.00 | 0.00 | 0.00 | 60 | 1015.6 |
| 20260504204002 | 76 | 28 | 1.0 | 8.0 | 0.00 | 0.00 | 0.00 | 60 | 1015.6 |
| 20260504203502 | 76 | 53 | 2.0 | 5.0 | 0.00 | 0.00 | 0.00 | 59 | 1015.7 |
| 20260504203003 | 76 | 140 | 1.0 | 5.0 | 0.00 | 0.00 | 0.00 | 60 | 1015.6 |
| 20260504202503 | 76 | 61 | 0.0 | 4.0 | 0.00 | 0.00 | 0.00 | 58 | 1015.6 |
| 20260504202003 | 77 | 199 | 1.0 | 8.0 | 0.00 | 0.00 | 0.00 | 56 | 1015.7 |
| 20260504201502 | 77 | 232 | 2.0 | 8.0 | 0.00 | 0.00 | 0.00 | 59 | 1015.8 |